Regional Weather Roundup
Issued by NWS Charleston, SC

Current Version | Previous Version | Graphics & Text | Print | Product List | Glossary On
Versions: 1 2 3 4 5 6 7 8 9 10 11 12 13 14 15 16 17 18 19 20 21 22 23 24 25 26 27 28 29 30 31 32 33 34 35 36 37 38 39 40 41 42 43 44 45 46 47 48 49 50
000 ASUS42 KCHS 252125 RWRCHS REGIONAL WEATHER ROUNDUP NATIONAL WEATHER SERVICE CHARLESTON SC 400 PM EST SUN JAN 25 2015 NOTE: "FAIR" INDICATES FEW OR NO CLOUDS BELOW 12,000 FEET WITH NO SIGNIFICANT WEATHER AND/OR OBSTRUCTIONS TO VISIBILITY. NOT ALL STATIONS ARE QUALITY CONTROLLED BY THE NATIONAL WEATHER SERVICE. USE DATA WITH CAUTION...ESPECIALLY DEWPOINT OBSERVATIONS. SCZ027-030-031-034>040-042>050-252200- ...SOUTHEAST SOUTH CAROLINA... CITY SKY/WX TMP DP RH WIND PRES REMARKS N CHARLESTON MOSUNNY 57 35 43 S9 29.89F WATERFRONT PRK N/A 54 N/A N/A S12 N/A MOUNT PLEASANT FAIR N/A N/A N/A S10 29.89F PINOPOLIS NOT AVBL MONCKS CORNER FAIR 61 36 39 S9 29.87F SUMMERVILLE FAIR 61 36 39 S8 29.87F BEAUFORT MCAS SUNNY 56 41 57 S10 29.90S BEAUFORT ARPT FAIR 54 41 62 S8 29.90S HILTON HEAD IS SUNNY 54 41 62 S9 29.92S WALTERBORO CLEAR 61 30 31 S12 29.87S ALLENDALE FAIR 61 30 31 S9 29.84F ...SOUTHERN MIDLANDS AND PEE DEE... CITY SKY/WX TMP DP RH WIND PRES REMARKS GEORGETOWN NOT AVBL KINGSTREE NOT AVBL ORANGEBURG SUNNY 60 30 32 S12 29.84F BARNWELL FAIR 61 32 33 S12G21 29.83F AIKEN FAIR 59 32 36 S12 29.84F MANNING NOT AVBL COLUMBIA SUNNY 61 28 28 S13 29.81F SUMTER SUNNY 59 33 37 S9 29.82F FLORENCE SUNNY 59 32 36 S10 29.85F MYRTLE BEACH SUNNY 52 36 54 S10 29.93S N MYRTLE BEACH SUNNY 50 38 63 S8 29.91S $$ GAZ063-065-086>088-099>101-113>116-118-119-134>141-150-252200- ...SOUTHEAST GEORGIA... CITY SKY/WX TMP DP RH WIND PRES REMARKS SAVANNAH ARPT MOSUNNY 62 28 27 SW10 29.89F HUNTER AAF SUNNY 57 42 55 S9 29.88F FORT STEWART SUNNY 62 29 29 SW12 29.88F STATESBORO SUNNY 61 34 36 SW8 29.86F SYLVANIA CLEAR 61 34 36 SW8 29.86F CLAXTON FAIR 61 34 36 S7 29.87F ...CSRA...CENTRAL AND FAR SOUTHEAST GEORGIA... CITY SKY/WX TMP DP RH WIND PRES REMARKS THOMSON SUNNY 61 35 36 S7 29.85F AUGUSTA-BUSH SUNNY 61 28 28 SW13 29.83F AUGUSTA-DANIEL SUNNY 61 28 28 SW9 29.82F SWAINSBORO FAIR 63 9 12 S14 29.85F VIDALIA SUNNY 61 32 33 SW14 29.87F EASTMAN FAIR 61 33 35 SW9G16 29.88F HAZLEHURST FAIR 62 33 34 SW6 29.87S ALMA SUNNY 61 30 31 SW8 29.89F WAYCROSS SUNNY 65 33 30 SW12 29.90F JESUP FAIR 64 34 32 SW6 29.90F BAXLEY FAIR 63 32 31 SW9G16 29.87F BRUNSWICK SUNNY 61 41 48 SE8 29.92S SAINT SIMONS SUNNY 56 42 59 S9 29.92F $$ SCZ027-028-034-036>038-045-046-048>050-GAZ119-141-252200- ...LAKE AND SUPPLEMENTAL COASTAL OBSERVATIONS... STATION/POSITION TIME TEMP WIND PRES WAVE SWELL AIR SEA DIR/SP/G HT/PER HT/PER/DIR (UTC) (F) (DEG/KT/KT) (MB) (FT/S) (FT/S/D) UPR LAKE MARION NOT AVBL WINYAH BAY 2100 51 150/ 8 1012.0S LAKE MURRAY 2000 63 190/ 2/ 3 1009.1F ACE BASIN NERRS NOT AVBL FORT PULASKI 2100 53 54 180/ 9/ 14 1013.2F SAPELO ISLAND 2100 58 150/ 10 1013.0S $$ ANZ835-935-AMZ111-154-330-350-352-354-370-450-454-472-252200- ...C-MAN AND BUOY OBSERVATIONS... STATION/POSITION TIME TEMP WIND PRES WAVE SWELL AIR SEA DIR/SP/G HT/PER HT/PER/DIR (UTC) (F) (DEG/KT/KT) (MB) (FT/S) (FT/S/D) BUOY 41004 2100 56 69 190/ 10/ 14 1012.6F 2/ 6 2/ 6 BUOY 41008 2100 53 55 190/ 12/ 14 1013.4F 1/ 2 FOLLY BEACH CMAN 2100 52 190/ 9/ 12 1013.2F CAPERS NEARSHORE 2000 51 180/ 8/ 8 N/A FRIPP NEARSHORE 2000 53 190/ 12/ 12 N/A STATION/POSITION TIME TEMP WIND PRES WAVE SWELL AIR SEA DIR/SP/G HT/PER HT/PER/DIR (UTC) (F) (DEG/KT/KT) (MB) (FT/S) (FT/S/D) 5E ST. MARYS GA 2100 58 N/A 1/ 2 FRYING PAN BUOY 2100 54 67 190/ 4/ 8 1013.8F 3/ 8 3/150/ 8 BUOY 41025 2100 51 69 160/ 2/ 4 1013.2F 4/10 3/160/10 CAPE LOOKOUT NC 2100 48 170/ 7/ 8 1012.9S BUOY 41002 2029 65 72 260/ 8/ 12 1014.0F 6/ 8 7/240/ 8 BUOY 41010 2100 66 76 210/ 6/ 10 1015.0R 4/ 7 3/340/ 7 ST AUGUSTINE FL 2100 56 150/ 9/ 10 1014.7F $$

USA.gov is the U.S. government's official web portal to all federal, state and local government web resources and services.